Wind_Speed
27 28 28 29 31 32 33 33 33 33 33 34 34 33 33 33 34 34 34 34 34 35 35 35 36 37 37 37 37 37 37 38 38 39 40 39 39 39 40 40 40 39 39 39
27 28 28 30 31 32 32 33 33 33 33 34 35 34 33 34 34 34 35 35 35 35 35 35 36 36 37 37 37 37 37 37 38 38 39 39 38 38 39 39 39 39 39 39
28 28 28 29 30 32 33 33 33 34 34 35 36 36 34 34 34 34 34 34 35 35 35 35 36 36 37 37 37 37 37 37 37 38 38 38 38 37 38 39 39 39 39 39
28 28 28 29 30 31 32 32 33 34 34 34 35 36 34 34 34 34 33 34 35 35 36 35 36 36 37 37 37 37 36 37 37 38 37 37 37 37 37 37 39 39 39 39
28 28 29 29 30 31 32 32 33 33 34 35 34 36 34 33 32 32 33 33 34 35 36 36 36 36 37 37 37 37 37 37 37 37 37 37 37 36 36 37 37 38 39 39
29 28 29 29 30 31 32 32 33 34 34 35 34 35 34 32 31 30 31 33 33 34 35 35 36 37 36 36 37 37 38 38 38 38 38 38 38 37 36 36 36 36 37 38
29 28 28 29 30 30 31 31 32 34 35 35 33 34 33 32 31 30 29 31 33 34 34 35 36 36 37 36 37 37 38 38 38 37 37 38 38 38 37 36 36 36 37 37
30 29 29 29 30 30 30 30 32 34 35 34 33 34 32 32 31 30 30 31 32 34 34 35 35 36 36 36 36 36 37 37 37 37 37 37 38 38 38 37 37 36 36 37
31 31 30 29 29 30 30 30 31 33 34 34 33 33 32 31 31 30 31 31 32 34 34 34 34 35 36 36 36 36 36 36 36 37 37 37 37 37 37 37 37 37 36 36
31 32 31 30 29 30 30 30 30 32 33 33 33 32 31 30 30 31 31 32 33 33 33 33 33 34 34 35 35 35 35 35 35 36 36 37 37 37 37 38 38 38 38 38
29 30 29 29 28 28 29 28 30 32 33 33 32 31 30 30 30 30 31 31 32 32 32 33 33 33 34 34 34 34 34 35 35 35 36 37 37 37 38 38 38 39 39 39
29 29 28 28 28 29 29 29 29 30 31 31 32 30 28 29 29 30 30 31 31 32 32 32 32 32 32 32 33 33 34 34 34 35 35 36 37 37 38 38 39 39 40 40
29 28 28 28 28 28 29 30 31 32 32 32 32 29 27 28 28 29 30 30 31 31 31 31 31 31 31 31 31 31 32 33 34 34 35 35 36 37 38 39 39 40 40 41
29 29 28 27 28 28 28 29 30 32 33 33 32 30 29 29 29 30 29 29 30 30 30 31 31 31 31 30 30 30 31 31 32 33 33 34 35 37 38 39 39 40 40 41
29 30 29 28 28 29 29 29 30 31 32 33 31 30 29 31 32 32 31 31 30 30 31 31 31 31 31 31 31 31 31 31 31 32 33 34 35 36 38 38 39 39 40 40
31 32 31 30 29 30 30 29 30 31 31 32 32 31 30 32 33 33 32 32 32 31 31 31 31 31 31 31 31 32 32 32 32 32 33 34 35 35 36 37 38 39 39 40
30 31 32 32 31 32 32 29 30 31 31 31 32 31 31 31 32 32 32 33 32 31 30 29 30 31 31 31 31 32 33 33 34 34 34 34 35 35 36 37 37 38 39 40
31 31 32 33 32 34 31 30 30 31 32 32 32 32 32 32 32 32 32 32 32 32 31 31 30 31 31 31 32 32 32 32 33 34 34 34 34 35 36 36 37 38 38 39
30 31 32 32 33 34 31 30 30 31 31 31 32 32 33 32 32 31 32 32 33 32 32 32 31 32 32 32 32 33 33 33 33 33 34 34 34 34 35 35 36 36 37 37
30 30 32 33 34 34 31 31 31 32 32 30 32 32 32 32 32 31 32 32 33 32 32 32 32 32 32 33 33 33 33 33 33 33 33 33 33 33 34 34 35 35 36 37
29 30 31 31 32 31 30 31 31 32 30 30 31 31 31 32 32 33 33 32 33 32 32 32 32 32 32 33 33 32 33 33 33 33 33 33 33 32 33 33 34 35 35 36
29 30 30 30 31 30 29 31 32 31 31 31 30 30 31 32 32 32 32 33 33 33 33 33 32 32 32 32 32 31 31 31 31 31 31 31 31 31 32 32 32 33 34 35
30 29 30 31 31 30 30 30 31 31 30 30 30 30 31 31 31 31 32 32 33 33 33 33 32 32 32 32 32 32 31 31 31 30 30 30 31 31 31 32 32 33 33 33
29 29 30 30 28 29 29 28 28 28 29 29 30 29 29 29 28 28 30 31 32 32 32 31 31 31 31 31 31 31 31 31 31 31 31 31 31 31 31 32 33 33 33 33
28 29 29 28 28 28 27 27 28 28 28 28 29 29 29 29 29 29 29 30 30 29 29 29 30 30 30 30 30 30 30 30 30 31 31 31 32 32 32 32 33 33 34 34
27 28 29 27 27 27 26 26 27 28 28 28 29 29 29 29 30 30 29 28 28 28 28 29 29 30 30 30 30 30 30 30 30 31 31 31 31 32 32 32 33 33 34 34
Wind_Direction
263 260 259 257 256 255 255 254 254 254 254 255 255 256 255 256 257 258 260 262 263 264 263 263 263 264 264 264 265 265 264 263 262 261 260 259 258 257 258 257 254 254 253 253
264 262 260 258 256 255 255 254 254 255 255 256 256 256 256 256 257 258 260 262 263 263 264 264 264 265 264 264 264 264 264 263 262 261 259 259 258 256 256 256 256 254 253 253
267 265 261 259 256 255 255 256 257 258 257 257 258 257 257 257 258 259 261 262 263 263 264 264 264 264 265 265 265 265 264 263 262 261 259 258 257 256 256 256 255 254 253 252
268 267 264 261 258 258 259 258 259 259 260 259 259 260 257 259 259 261 262 262 263 263 264 265 264 265 265 265 266 265 265 263 261 260 259 258 258 256 256 256 254 253 252 252
269 267 264 262 262 260 259 258 258 259 260 260 260 262 261 261 262 262 263 262 263 263 264 265 264 265 266 266 265 265 264 263 261 259 258 257 257 256 256 256 254 253 252 251
268 266 264 264 264 261 260 259 259 259 260 261 261 263 263 261 262 263 263 262 262 262 263 264 265 265 265 266 265 264 264 263 261 260 259 257 256 255 256 256 254 253 251 250
268 266 265 265 264 262 260 260 260 261 261 263 263 263 263 262 262 263 263 262 262 263 264 265 265 264 265 266 265 264 263 262 261 260 259 257 256 255 256 256 256 254 252 251
267 266 266 265 265 262 260 260 261 263 263 263 264 264 264 263 264 264 264 264 264 266 267 266 267 266 266 265 265 264 263 261 260 260 258 257 256 256 255 255 254 255 253 251
269 267 266 265 264 262 260 259 261 262 263 264 264 266 265 264 264 266 267 266 265 267 267 267 267 267 267 266 264 262 261 260 260 259 259 257 256 255 254 254 255 255 253 251
269 269 266 265 264 262 260 260 260 260 262 264 265 267 267 266 267 267 268 268 266 266 266 266 268 268 267 266 264 261 260 259 259 258 257 257 256 255 254 254 255 255 254 252
269 268 267 266 263 263 260 259 260 260 261 264 268 269 271 270 269 270 270 268 266 265 265 267 267 267 267 265 263 261 260 259 258 257 257 257 257 256 255 255 255 254 254 253
268 268 267 266 264 263 261 259 258 259 262 264 268 270 271 271 271 271 271 270 268 266 266 266 267 268 267 265 263 262 261 260 259 258 258 258 258 258 257 256 256 255 254 254
267 267 267 266 266 265 264 262 260 260 262 264 267 270 269 270 270 270 271 271 270 269 267 267 267 267 265 264 262 261 261 260 259 259 259 259 259 259 258 257 257 256 256 256
265 265 266 267 268 267 266 265 263 263 263 264 267 270 269 270 269 270 270 271 272 270 268 267 266 267 264 262 260 260 260 260 260 260 261 261 261 261 260 259 258 257 257 257
267 266 267 267 267 266 265 265 265 266 266 265 267 268 269 268 269 271 272 272 272 271 269 267 265 265 265 262 260 260 260 261 262 262 263 264 264 263 262 261 260 258 258 259
269 269 268 267 267 267 265 265 266 267 267 267 267 268 269 267 268 270 271 272 272 272 269 267 265 265 266 265 263 262 262 262 263 264 265 266 265 265 264 262 260 259 260 261
270 271 270 269 267 267 267 268 269 269 268 268 269 269 268 267 268 270 270 270 271 270 270 268 268 268 267 266 265 265 265 264 264 266 266 266 266 265 264 263 262 262 262 262
270 271 271 270 269 268 271 271 271 270 269 269 269 268 268 269 269 270 270 270 269 269 269 270 271 270 268 267 267 267 266 266 266 267 267 267 266 265 264 263 263 263 264 265
270 271 271 270 269 269 270 272 272 272 269 268 269 268 268 269 269 269 270 269 268 268 270 271 271 271 269 268 268 267 266 266 267 268 267 266 265 265 265 265 265 266 266 266
271 272 272 271 270 271 273 272 272 272 269 269 268 268 268 268 268 268 268 267 267 268 269 271 272 272 270 270 269 268 267 266 267 267 266 265 265 265 265 266 267 268 268 268
270 271 272 273 271 271 273 271 271 271 271 269 268 269 269 268 268 267 268 268 268 268 269 270 271 271 271 271 270 269 267 266 266 265 265 265 265 265 266 267 269 269 269 270
271 272 270 272 272 273 273 271 271 271 270 270 269 270 270 268 268 267 268 268 267 268 269 269 270 270 271 270 269 268 267 266 266 265 265 265 265 266 267 269 270 270 271 272
270 270 271 271 272 273 271 272 271 270 269 269 270 270 269 269 269 268 267 267 268 269 269 270 269 269 269 268 268 267 267 266 265 264 265 266 266 268 269 270 271 272 272 273
271 270 269 270 272 271 270 269 268 268 268 270 271 271 270 270 270 270 269 269 269 269 270 271 270 269 269 268 267 266 266 266 265 264 265 267 268 270 271 272 272 273 274 275
271 270 270 270 271 270 268 268 268 268 269 271 271 270 270 270 272 272 272 271 271 270 269 269 269 269 269 268 268 267 267 267 266 265 266 268 269 271 272 273 273 273 274 276
272 273 273 273 271 269 267 268 270 271 271 271 271 271 270 271 273 273 273 272 271 271 271 270 269 269 269 268 268 268 268 268 267 266 267 269 271 272 273 275 276 275 276 276
Height
5689 5691 5691 5693 5694 5695 5696 5698 5700 5702 5703 5704 5706 5709 5712 5712 5713 5714 5715 5716 5717 5718 5719 5719 5720 5720 5721 5722 5723 5723 5724 5725 5726 5726 5727 5728 5730 5731 5732 5733 5734 5735 5737 5739
5682 5683 5684 5685 5686 5687 5688 5689 5691 5693 5695 5695 5697 5700 5702 5703 5704 5705 5707 5707 5708 5709 5710 5710 5711 5711 5712 5713 5713 5714 5714 5715 5716 5717 5717 5718 5720 5721 5722 5723 5724 5726 5727 5729
5675 5677 5676 5677 5678 5679 5680 5681 5683 5684 5685 5686 5687 5690 5693 5694 5695 5696 5697 5698 5699 5700 5701 5701 5702 5702 5702 5703 5704 5704 5705 5705 5706 5707 5707 5709 5710 5711 5713 5714 5715 5716 5718 5719
5667 5668 5669 5669 5670 5671 5672 5673 5674 5675 5676 5677 5679 5679 5685 5686 5687 5688 5689 5689 5690 5691 5692 5692 5693 5693 5693 5694 5694 5694 5695 5695 5696 5697 5698 5699 5701 5702 5704 5704 5706 5707 5709 5710
5660 5661 5661 5662 5663 5663 5664 5665 5666 5667 5667 5668 5670 5670 5676 5678 5679 5680 5680 5681 5681 5682 5682 5683 5683 5684 5684 5684 5684 5684 5685 5685 5686 5687 5688 5690 5691 5693 5694 5695 5696 5698 5700 5701
5654 5654 5654 5655 5655 5656 5656 5657 5658 5658 5659 5660 5663 5663 5666 5670 5671 5672 5672 5672 5672 5673 5673 5673 5674 5674 5674 5674 5674 5674 5674 5675 5676 5677 5679 5680 5682 5684 5685 5686 5688 5689 5691 5693
5646 5647 5647 5647 5647 5648 5649 5650 5650 5650 5650 5652 5655 5655 5659 5661 5662 5663 5663 5663 5663 5663 5664 5664 5664 5664 5664 5664 5664 5664 5664 5665 5666 5668 5669 5671 5672 5674 5676 5678 5679 5681 5683 5685
5638 5639 5640 5640 5640 5641 5641 5643 5644 5643 5643 5645 5646 5647 5652 5653 5653 5654 5654 5654 5654 5654 5655 5655 5655 5654 5655 5654 5654 5654 5654 5655 5656 5658 5660 5661 5663 5665 5667 5669 5671 5672 5674 5676
5629 5631 5632 5632 5633 5633 5633 5635 5636 5636 5635 5636 5638 5640 5643 5645 5645 5645 5645 5646 5646 5646 5645 5645 5645 5645 5645 5645 5644 5644 5645 5646 5647 5649 5650 5652 5654 5656 5658 5660 5662 5664 5666 5668
5622 5622 5624 5624 5625 5626 5626 5627 5628 5627 5627 5628 5630 5632 5635 5636 5636 5637 5637 5637 5636 5636 5636 5636 5636 5636 5636 5635 5635 5635 5636 5637 5638 5640 5641 5643 5645 5647 5649 5651 5653 5655 5657 5659
5615 5615 5616 5617 5618 5619 5620 5620 5620 5619 5620 5621 5621 5627 5628 5628 5628 5628 5628 5627 5627 5627 5627 5628 5628 5627 5627 5626 5626 5627 5628 5629 5630 5631 5633 5634 5636 5638 5639 5642 5644 5646 5648 5650
5607 5607 5607 5609 5611 5611 5611 5612 5613 5613 5613 5613 5613 5620 5620 5620 5619 5619 5619 5619 5618 5618 5619 5619 5619 5619 5618 5618 5618 5618 5619 5620 5622 5623 5624 5626 5627 5629 5631 5633 5635 5636 5639 5641
5599 5600 5600 5601 5605 5604 5604 5605 5605 5605 5605 5605 5606 5612 5612 5611 5611 5611 5611 5611 5610 5610 5610 5610 5610 5610 5610 5610 5610 5611 5611 5612 5613 5615 5616 5617 5619 5620 5622 5623 5625 5627 5629 5631
5592 5593 5594 5595 5595 5596 5596 5597 5598 5598 5597 5598 5600 5602 5604 5603 5603 5603 5603 5603 5602 5602 5602 5602 5602 5602 5602 5602 5602 5603 5603 5604 5605 5606 5608 5609 5610 5611 5612 5614 5615 5617 5619 5621
5584 5585 5586 5587 5588 5588 5588 5589 5590 5590 5590 5590 5593 5593 5596 5595 5594 5595 5595 5594 5594 5594 5594 5594 5594 5594 5594 5594 5594 5595 5595 5596 5597 5598 5599 5600 5601 5602 5603 5604 5605 5607 5608 5610
5577 5577 5578 5579 5580 5579 5580 5582 5582 5582 5582 5583 5583 5586 5587 5585 5585 5586 5586 5586 5586 5586 5586 5585 5586 5586 5586 5586 5586 5587 5587 5588 5589 5590 5590 5591 5591 5592 5593 5594 5595 5597 5598 5599
5569 5569 5570 5571 5571 5571 5573 5576 5575 5575 5575 5575 5575 5578 5577 5577 5577 5577 5577 5577 5577 5577 5577 5577 5577 5577 5577 5577 5578 5578 5578 5579 5580 5581 5581 5581 5582 5583 5584 5584 5586 5587 5588 5589
5562 5562 5561 5561 5563 5562 5569 5567 5567 5566 5567 5567 5567 5568 5568 5568 5568 5568 5569 5569 5569 5569 5569 5569 5569 5569 5569 5569 5569 5569 5570 5570 5571 5571 5572 5572 5573 5573 5574 5575 5575 5576 5577 5578
5554 5554 5553 5553 5552 5553 5559 5559 5558 5557 5558 5559 5558 5558 5559 5559 5559 5560 5560 5560 5560 5560 5560 5560 5560 5560 5560 5560 5560 5560 5561 5561 5562 5562 5562 5563 5563 5564 5564 5565 5565 5566 5566 5567
5546 5546 5546 5545 5544 5545 5551 5550 5549 5548 5549 5551 5549 5549 5549 5549 5550 5551 5551 5551 5551 5551 5551 5551 5551 5551 5551 5551 5551 5551 5551 5552 5552 5552 5553 5553 5553 5554 5555 5555 5556 5556 5556 5556
5539 5538 5538 5537 5535 5537 5541 5541 5540 5541 5541 5540 5540 5540 5540 5540 5541 5541 5541 5541 5541 5542 5542 5542 5542 5542 5542 5541 5541 5541 5542 5542 5542 5543 5543 5544 5544 5545 5545 5546 5546 5546 5546 5546
5530 5530 5530 5529 5529 5533 5532 5531 5532 5531 5531 5530 5531 5531 5531 5531 5531 5531 5532 5532 5532 5532 5532 5532 5532 5532 5532 5532 5532 5532 5532 5532 5532 5533 5534 5534 5535 5535 5536 5536 5536 5536 5536 5536
5523 5524 5522 5523 5525 5524 5523 5522 5522 5522 5522 5522 5522 5522 5522 5522 5522 5522 5523 5522 5523 5523 5523 5523 5523 5522 5522 5522 5522 5523 5523 5523 5523 5524 5524 5525 5525 5526 5526 5526 5527 5526 5526 5525
5515 5515 5514 5514 5516 5516 5515 5514 5514 5514 5513 5514 5514 5514 5514 5513 5513 5513 5513 5513 5513 5513 5513 5513 5513 5512 5512 5512 5512 5513 5513 5514 5514 5514 5515 5516 5516 5516 5517 5517 5517 5516 5516 5515
5507 5506 5506 5507 5508 5507 5507 5506 5506 5506 5506 5506 5506 5506 5505 5505 5505 5505 5505 5504 5504 5503 5503 5503 5503 5503 5503 5503 5503 5503 5504 5504 5504 5505 5506 5506 5506 5507 5507 5507 5506 5506 5506 5505
5501 5500 5499 5499 5499 5498 5499 5499 5498 5499 5499 5498 5498 5498 5498 5497 5497 5496 5496 5495 5495 5495 5494 5494 5494 5494 5494 5494 5494 5494 5494 5494 5495 5496 5496 5497 5497 5497 5497 5497 5496 5495 5495 5494